Torna al catalogo

SL-14 DEB

AttivoPO
NORAD 45311·DEBRIS·🇷🇺 Russia

Lanciato Aug 15, 1991 da Plesetsk Cosmodrome

Loading…

Prossimi Passaggi (prossime 24 ore)

TLE

AggiornatoSource: Space-Track

Epoca: Sep 14, 2026, 10:57 UTC

1 45311U 91056AZ  26257.45636306  .00000121  00000-0  27359-3 0  9993
2 45311  82.5458  70.3877 0017485 241.1243 118.8126 13.18868932315377

Traccia SL-14 DEB in tempo reale con AllMySat

Download on the App Store